Weather History for Istanbul, Turkey

Change the Weather History Date:

Saturday, May 18, 2013

  Actual Average Record
Temperature  
Mean Temperature 70 °F -  
Max Temperature 77 °F 74 °F 80 °F (2007)
Min Temperature 64 °F 59 °F 53 °F (1997)
Cooling Degree Days 6    
Growing Degree Days 20 (Base 50)    
Moisture  
Dew Point 57 °F    
Average Humidity 58    
Maximum Humidity 83    
Minimum Humidity 38    
Precipitation  
Precipitation 0.00 in - - ()
Sea Level Pressure  
Sea Level Pressure 29.96 in    
Wind  
Wind Speed 5 mph ()    
Max Wind Speed 12 mph    
Max Gust Speed -    
Visibility 6.2 miles    
Events      
Averages and records for this station are not official NWS values.
T = Trace of Precipitation, MM = Missing Value Source: Averaged Metar Reports

Daily Weather History Graph

Daily Weather History Graph

Search for Another Location

Airport:

Trip Planner

Search our weather history database for the weather conditions in past years. The results will help you decide how hot, cold, wet, or windy it might be!

Date:

Astronomy

May. 18, 2013 Rise Set
Actual Time 5:44 AM EEST 8:18 PM EEST
Civil Twilight 5:12 AM EEST 8:50 PM EEST
Nautical Twilight 4:33 AM EEST 9:29 PM EEST
Astronomical Twilight 3:49 AM EEST 10:14 PM EEST
Moon 12:59 PM EEST (5/18) 1:29 AM EEST (5/18)
Length of Visible Light 15h 37m
Length of Day
14h 34m
First Quarter, 52% of the Moon is Illuminated
May 18
First Quarter
May 25
Full
May 31
Last Quarter
Jun 8
New
Jun 16
First Quarter

Hourly Weather History & Observations

Time (EEST) Temp. Dew Point Humidity Pressure Visibility Wind Dir Wind Speed Gust Speed Precip Events Conditions
12:20 AM 69.8 °F 55.4 °F 60% 29.89 in - West 4.6 mph - N/A   Clear
12:50 AM 71.6 °F 55.4 °F 57% 29.89 in - West 5.8 mph - N/A   Clear
1:20 AM 69.8 °F 55.4 °F 60% 29.89 in - West 4.6 mph - N/A   Clear
1:50 AM 69.8 °F 55.4 °F 60% 29.89 in - WSW 5.8 mph - N/A   Clear
2:20 AM 69.8 °F 55.4 °F 60% 29.92 in - West 3.5 mph - N/A   Clear
2:50 AM 68.0 °F 55.4 °F 64% 29.92 in - West 3.5 mph - N/A   Clear
3:00 AM 69 °F 54 °F 50% 29.92 in 6 mi West 3.5 mph - -  
3:20 AM 68.0 °F 55.4 °F 64% 29.92 in - West 4.6 mph - N/A   Clear
3:50 AM 68.0 °F 55.4 °F 64% 29.92 in - West 5.8 mph - N/A   Clear
4:20 AM 68.0 °F 55.4 °F 64% 29.92 in - West 5.8 mph - N/A   Clear
4:50 AM 64.4 °F 57.2 °F 77% 29.92 in - SW 5.8 mph - N/A   Clear
5:20 AM 66.2 °F 59.0 °F 78% 29.92 in - WSW 6.9 mph - N/A   Clear
5:50 AM 64.4 °F 59.0 °F 83% 29.92 in - West 3.5 mph - N/A   Clear
6:20 AM 64.4 °F 59.0 °F 83% 29.92 in - West 4.6 mph - N/A   Clear
6:50 AM 66.2 °F 59.0 °F 78% 29.95 in - West 3.5 mph - N/A   Clear
7:20 AM 68.0 °F 59.0 °F 73% 29.95 in - North 4.6 mph - N/A   Clear
7:50 AM 71.6 °F 57.2 °F 60% 29.95 in - NNW 4.6 mph - N/A   Clear
8:20 AM 73.4 °F 57.2 °F 57% 29.98 in - West 3.5 mph - N/A   Clear
8:50 AM 71.6 °F 60.8 °F 69% 29.98 in - SSW 5.8 mph - N/A   Clear
9:00 AM 72 °F 58 °F 52% 29.98 in 6 mi SSW 5.8 mph - -  
9:20 AM 71.6 °F 60.8 °F 69% 29.98 in - South 4.6 mph - N/A   Clear
9:50 AM 71.6 °F 59.0 °F 64% 29.98 in - SSW 6.9 mph - N/A   Clear
10:20 AM 71.6 °F 59.0 °F 64% 29.98 in - SW 8.1 mph - N/A   Clear
10:50 AM 75.2 °F 59.0 °F 57% 29.98 in - WSW 6.9 mph - N/A   Clear
11:20 AM 73.4 °F 59.0 °F 61% 30.01 in - WSW 6.9 mph - N/A   Clear
11:50 AM 75.2 °F 59.0 °F 57% 30.01 in - SW 8.1 mph - N/A   Clear
12:20 PM 75.2 °F 53.6 °F 47% 30.01 in - SW 9.2 mph - N/A   Clear
12:50 PM 75.2 °F 55.4 °F 50% 29.98 in - SW 9.2 mph - N/A   Clear
1:20 PM 77.0 °F 55.4 °F 47% 29.98 in - SW 11.5 mph - N/A   Clear
1:50 PM 77.0 °F 57.2 °F 50% 29.98 in - SW 9.2 mph - N/A   Clear
2:20 PM 75.2 °F 59.0 °F 57% 29.98 in - SSW 10.4 mph - N/A   Clear
2:50 PM 75.2 °F 57.2 °F 53% 29.98 in - SW 10.4 mph - N/A   Clear
3:00 PM 75 °F 56 °F 42% 29.99 in 6 mi SW 10.4 mph - -  
3:20 PM 77.0 °F 55.4 °F 47% 29.98 in - WSW 8.1 mph - N/A   Clear
3:50 PM 77.0 °F 55.4 °F 47% 29.98 in - WSW 8.1 mph - N/A   Clear
4:20 PM 77.0 °F 55.4 °F 47% 29.98 in - SW 8.1 mph - N/A   Clear
4:50 PM 77.0 °F 59.0 °F 54% 29.95 in - SSW 5.8 mph - N/A   Clear
5:20 PM 77.0 °F 57.2 °F 50% 29.95 in - SSW 5.8 mph - N/A   Clear
5:50 PM 77.0 °F 57.2 °F 50% 29.95 in - South 4.6 mph - N/A   Clear
6:20 PM 75.2 °F 57.2 °F 53% 29.95 in - SSW 5.8 mph - N/A   Clear
6:50 PM 75.2 °F 57.2 °F 53% 29.95 in - SSW 4.6 mph - N/A   Clear
7:20 PM 75.2 °F 57.2 °F 53% 29.95 in - Variable 2.3 mph - N/A   Clear
7:50 PM 71.6 °F 57.2 °F 60% 29.98 in - East 4.6 mph - N/A   Clear
8:20 PM 73.4 °F 55.4 °F 53% 29.95 in - East 4.6 mph - N/A   Clear
8:50 PM 75.2 °F 53.6 °F 47% 29.95 in - Variable 3.5 mph - N/A   Clear
9:00 PM 74 °F 53 °F 38% 29.96 in 7 mi East 3.5 mph - -  
9:20 PM 73.4 °F 55.4 °F 53% 29.95 in - East 4.6 mph - N/A   Clear
9:50 PM 75.2 °F 55.4 °F 50% 29.98 in - East 4.6 mph - N/A   Clear
10:20 PM 73.4 °F 57.2 °F 57% 29.98 in - Variable 1.2 mph - N/A   Clear
10:50 PM 69.8 °F 57.2 °F 64% 29.98 in - Variable 2.3 mph - N/A   Clear
11:20 PM 71.6 °F 57.2 °F 60% 29.98 in - Calm Calm - N/A   Clear
11:50 PM 71.6 °F 57.2 °F 60% 29.98 in - Variable 1.2 mph - N/A   Clear